Time,TemperatureF,DewpointF,PressureIn,WindDirection,WindDirectionDegrees,WindSpeedMPH,WindSpeedGustMPH,Humidity,HourlyPrecipIn,Conditions,Clouds,dailyrainin,SolarRadiationWatts/m^2,SoftwareType,DateUTC
2013-07-16 00:00:00,56.6,53.0,29.92,SW,218,9.0,10.0,88,0.00,,,0.00,0,weatherlink.com 1.10,2013-07-16 07:00:00,
2013-07-16 00:15:00,56.3,53.0,29.92,SW,218,4.0,11.0,88,0.00,,,0.00,0,weatherlink.com 1.10,2013-07-16 07:15:00,
2013-07-16 00:30:00,56.3,53.0,29.91,SW,236,0.0,9.0,88,0.00,,,0.00,0,weatherlink.com 1.10,2013-07-16 07:30:00,
2013-07-16 00:45:00,56.4,53.0,29.91,South,189,5.0,8.0,88,0.00,,,0.00,0,weatherlink.com 1.10,2013-07-16 07:45:00,
2013-07-16 01:00:00,56.4,53.0,29.91,South,187,2.0,11.0,88,0.00,,,0.00,0,weatherlink.com 1.10,2013-07-16 08:00:00,
2013-07-16 01:15:00,56.2,53.0,29.91,West,260,4.0,7.0,88,0.00,,,0.00,0,weatherlink.com 1.10,2013-07-16 08:15:00,
2013-07-16 01:30:00,56.2,53.0,29.92,West,265,2.0,10.0,88,0.00,,,0.00,0,weatherlink.com 1.10,2013-07-16 08:30:00,
2013-07-16 01:45:00,56.2,53.0,29.92,SW,229,2.0,8.0,88,0.00,,,0.00,0,weatherlink.com 1.10,2013-07-16 08:45:00,
2013-07-16 02:00:00,56.0,53.0,29.92,WSW,244,6.0,7.0,88,0.00,,,0.00,0,weatherlink.com 1.10,2013-07-16 09:00:00,
2013-07-16 02:15:00,55.7,52.0,29.92,WSW,243,6.0,10.0,88,0.00,,,0.00,0,weatherlink.com 1.10,2013-07-16 09:15:00,
2013-07-16 02:30:00,55.7,52.0,29.92,WSW,238,5.0,10.0,88,0.00,,,0.00,0,weatherlink.com 1.10,2013-07-16 09:30:00,
2013-07-16 02:45:00,55.9,52.0,29.92,WNW,296,5.0,6.0,88,0.00,,,0.00,0,weatherlink.com 1.10,2013-07-16 09:45:00,
2013-07-16 03:00:00,55.9,52.0,29.92,WSW,242,6.0,7.0,88,0.00,,,0.00,0,weatherlink.com 1.10,2013-07-16 10:00:00,
2013-07-16 03:15:00,55.9,52.0,29.92,WSW,241,2.0,7.0,88,0.00,,,0.00,0,weatherlink.com 1.10,2013-07-16 10:15:00,
2013-07-16 03:30:00,55.7,52.0,29.92,SW,221,3.0,8.0,88,0.00,,,0.00,0,weatherlink.com 1.10,2013-07-16 10:30:00,
2013-07-16 03:45:00,55.9,52.0,29.92,SSW,206,4.0,7.0,87,0.00,,,0.00,0,weatherlink.com 1.10,2013-07-16 10:45:00,
2013-07-16 04:00:00,55.9,52.0,29.92,WSW,252,5.0,8.0,87,0.00,,,0.00,0,weatherlink.com 1.10,2013-07-16 11:00:00,
2013-07-16 04:15:00,55.9,52.0,29.92,South,183,5.0,8.0,87,0.00,,,0.00,0,weatherlink.com 1.10,2013-07-16 11:15:00,
2013-07-16 04:30:00,55.8,52.0,29.92,SSW,194,2.0,7.0,87,0.00,,,0.00,0,weatherlink.com 1.10,2013-07-16 11:30:00,
2013-07-16 04:45:00,55.8,52.0,29.93,South,185,4.0,8.0,88,0.00,,,0.00,0,weatherlink.com 1.10,2013-07-16 11:45:00,
2013-07-16 05:00:00,55.8,53.0,29.93,SW,236,2.0,6.0,89,0.00,,,0.00,0,weatherlink.com 1.10,2013-07-16 12:00:00,
2013-07-16 05:15:00,55.5,52.0,29.93,WSW,241,4.0,6.0,89,0.00,,,0.00,0,weatherlink.com 1.10,2013-07-16 12:15:00,
2013-07-16 05:30:00,55.4,53.0,29.94,SW,223,2.0,8.0,90,0.00,,,0.00,0,weatherlink.com 1.10,2013-07-16 12:30:00,
2013-07-16 05:45:00,55.4,53.0,29.94,WSW,257,4.0,6.0,91,0.00,,,0.00,0,weatherlink.com 1.10,2013-07-16 12:45:00,
2013-07-16 06:00:00,55.0,52.0,29.94,WSW,241,4.0,7.0,90,0.00,,,0.00,0,weatherlink.com 1.10,2013-07-16 13:00:00,
2013-07-16 06:15:00,54.9,52.0,29.95,SSW,204,8.0,8.0,91,0.00,,,0.00,5,weatherlink.com 1.10,2013-07-16 13:15:00,
2013-07-16 06:31:00,54.6,52.0,29.95,SW,235,5.0,9.0,90,0.00,,,0.00,12,weatherlink.com 1.10,2013-07-16 13:31:00,
2013-07-16 06:46:00,54.5,52.0,29.96,SW,226,7.0,10.0,90,0.00,,,0.00,23,weatherlink.com 1.10,2013-07-16 13:46:00,
2013-07-16 07:01:00,54.6,52.0,29.96,South,177,0.0,9.0,89,0.00,,,0.00,33,weatherlink.com 1.10,2013-07-16 14:01:00,
2013-07-16 07:16:00,54.7,51.0,29.96,SW,225,1.0,13.0,88,0.00,,,0.00,53,weatherlink.com 1.10,2013-07-16 14:16:00,
2013-07-16 07:31:00,55.0,52.0,29.97,WSW,247,5.0,11.0,88,0.00,,,0.00,69,weatherlink.com 1.10,2013-07-16 14:31:00,
2013-07-16 07:46:00,54.9,51.0,29.98,South,183,8.0,8.0,87,0.00,,,0.00,62,weatherlink.com 1.10,2013-07-16 14:46:00,
2013-07-16 08:01:00,55.0,51.0,29.98,South,191,2.0,9.0,86,0.00,,,0.00,63,weatherlink.com 1.10,2013-07-16 15:01:00,
2013-07-16 08:16:00,55.0,51.0,29.99,SSW,212,5.0,13.0,86,0.00,,,0.00,58,weatherlink.com 1.10,2013-07-16 15:16:00,
2013-07-16 08:31:00,55.0,51.0,29.99,SW,219,2.0,9.0,86,0.00,,,0.00,76,weatherlink.com 1.10,2013-07-16 15:31:00,
2013-07-16 08:46:00,55.1,51.0,30.00,SW,229,4.0,10.0,86,0.00,,,0.00,113,weatherlink.com 1.10,2013-07-16 15:46:00,
2013-07-16 09:01:00,55.5,51.0,30.00,West,272,5.0,10.0,85,0.00,,,0.00,121,weatherlink.com 1.10,2013-07-16 16:01:00,
2013-07-16 09:16:00,56.3,51.0,30.01,SSW,208,5.0,9.0,83,0.00,,,0.00,160,weatherlink.com 1.10,2013-07-16 16:16:00,
2013-07-16 09:31:00,56.8,52.0,30.01,WSW,252,0.0,6.0,83,0.00,,,0.00,218,weatherlink.com 1.10,2013-07-16 16:31:00,
2013-07-16 09:46:00,57.3,52.0,30.01,WSW,255,1.0,7.0,83,0.00,,,0.00,197,weatherlink.com 1.10,2013-07-16 16:46:00,
2013-07-16 10:01:00,58.1,52.0,30.01,SW,227,0.0,8.0,81,0.00,,,0.00,246,weatherlink.com 1.10,2013-07-16 17:01:00,
2013-07-16 10:16:00,58.5,52.0,30.01,SSW,212,6.0,7.0,80,0.00,,,0.00,225,weatherlink.com 1.10,2013-07-16 17:16:00,
2013-07-16 10:31:00,58.7,53.0,30.02,West,263,0.0,7.0,80,0.00,,,0.00,292,weatherlink.com 1.10,2013-07-16 17:31:00,
2013-07-16 10:46:00,59.4,53.0,30.02,SW,236,5.0,7.0,79,0.00,,,0.00,315,weatherlink.com 1.10,2013-07-16 17:46:00,
2013-07-16 11:01:00,60.6,53.0,30.02,SSW,212,0.0,7.0,77,0.00,,,0.00,373,weatherlink.com 1.10,2013-07-16 18:01:00,
2013-07-16 11:16:00,60.9,53.0,30.03,WSW,252,3.0,7.0,76,0.00,,,0.00,295,weatherlink.com 1.10,2013-07-16 18:16:00,
2013-07-16 11:31:00,61.2,54.0,30.03,South,178,7.0,9.0,76,0.00,,,0.00,308,weatherlink.com 1.10,2013-07-16 18:31:00,
2013-07-16 11:46:00,61.2,54.0,30.03,West,260,5.0,7.0,76,0.00,,,0.00,397,weatherlink.com 1.10,2013-07-16 18:46:00,
2013-07-16 12:01:00,61.7,53.0,30.04,NW,306,3.0,10.0,74,0.00,,,0.00,417,weatherlink.com 1.10,2013-07-16 19:01:00,
2013-07-16 12:17:00,62.9,54.0,30.03,NW,311,7.0,7.0,73,0.00,,,0.00,374,weatherlink.com 1.10,2013-07-16 19:17:00,
2013-07-16 12:32:00,63.4,54.0,30.03,WNW,289,7.0,8.0,71,0.00,,,0.00,499,weatherlink.com 1.10,2013-07-16 19:32:00,
2013-07-16 12:47:00,64.4,55.0,30.04,SW,214,2.0,8.0,71,0.00,,,0.00,571,weatherlink.com 1.10,2013-07-16 19:47:00,
2013-07-16 13:02:00,64.7,54.0,30.04,SSW,201,3.0,9.0,68,0.00,,,0.00,490,weatherlink.com 1.10,2013-07-16 20:02:00,
2013-07-16 13:17:00,64.1,54.0,30.04,SW,233,1.0,9.0,70,0.00,,,0.00,461,weatherlink.com 1.10,2013-07-16 20:17:00,
2013-07-16 13:32:00,64.6,55.0,30.04,SSE,168,3.0,8.0,71,0.00,,,0.00,466,weatherlink.com 1.10,2013-07-16 20:32:00,
2013-07-16 13:47:00,64.9,55.0,30.04,SSW,200,0.0,10.0,70,0.00,,,0.00,568,weatherlink.com 1.10,2013-07-16 20:47:00,
2013-07-16 14:02:00,65.7,55.0,30.04,WNW,286,4.0,8.0,68,0.00,,,0.00,517,weatherlink.com 1.10,2013-07-16 21:02:00,
2013-07-16 14:17:00,65.7,55.0,30.04,West,274,6.0,9.0,68,0.00,,,0.00,584,weatherlink.com 1.10,2013-07-16 21:17:00,
2013-07-16 14:32:00,65.2,55.0,30.04,West,281,7.0,12.0,69,0.00,,,0.00,531,weatherlink.com 1.10,2013-07-16 21:32:00,
2013-07-16 14:47:00,65.7,55.0,30.04,WSW,241,5.0,9.0,68,0.00,,,0.00,522,weatherlink.com 1.10,2013-07-16 21:47:00,
2013-07-16 15:02:00,66.2,55.0,30.04,SW,215,5.0,11.0,67,0.00,,,0.00,517,weatherlink.com 1.10,2013-07-16 22:02:00,
2013-07-16 15:17:00,65.6,55.0,30.04,SW,229,8.0,11.0,68,0.00,,,0.00,541,weatherlink.com 1.10,2013-07-16 22:17:00,
2013-07-16 15:33:00,65.5,55.0,30.04,SW,214,8.0,12.0,69,0.00,,,0.00,540,weatherlink.com 1.10,2013-07-16 22:33:00,
2013-07-16 15:47:00,65.5,55.0,30.04,SW,216,2.0,11.0,69,0.00,,,0.00,406,weatherlink.com 1.10,2013-07-16 22:47:00,
2013-07-16 16:02:00,65.2,55.0,30.04,SSW,197,2.0,10.0,70,0.00,,,0.00,413,weatherlink.com 1.10,2013-07-16 23:02:00,
2013-07-16 16:17:00,64.3,55.0,30.03,WSW,245,6.0,13.0,73,0.00,,,0.00,345,weatherlink.com 1.10,2013-07-16 23:17:00,
2013-07-16 16:32:00,64.6,56.0,30.03,West,274,6.0,12.0,74,0.00,,,0.00,422,weatherlink.com 1.10,2013-07-16 23:32:00,
2013-07-16 16:47:00,64.1,56.0,30.03,SW,220,2.0,14.0,75,0.00,,,0.00,545,weatherlink.com 1.10,2013-07-16 23:47:00,
2013-07-16 17:02:00,64.5,56.0,30.03,SSW,210,6.0,12.0,75,0.00,,,0.00,446,weatherlink.com 1.10,2013-07-17 00:02:00,
2013-07-16 17:17:00,64.0,57.0,30.02,WSW,245,3.0,13.0,77,0.00,,,0.00,374,weatherlink.com 1.10,2013-07-17 00:17:00,
2013-07-16 17:32:00,64.2,57.0,30.02,WSW,249,7.0,12.0,77,0.00,,,0.00,547,weatherlink.com 1.10,2013-07-17 00:32:00,
2013-07-16 17:47:00,64.2,57.0,30.02,WNW,284,2.0,11.0,77,0.00,,,0.00,330,weatherlink.com 1.10,2013-07-17 00:47:00,
2013-07-16 18:02:00,63.4,56.0,30.02,SSW,206,0.0,9.0,78,0.00,,,0.00,190,weatherlink.com 1.10,2013-07-17 01:02:00,
2013-07-16 18:17:00,62.2,56.0,30.02,West,277,11.0,15.0,80,0.00,,,0.00,171,weatherlink.com 1.10,2013-07-17 01:17:00,
2013-07-16 18:32:00,61.9,57.0,30.02,West,264,5.0,11.0,83,0.00,,,0.00,207,weatherlink.com 1.10,2013-07-17 01:32:00,
2013-07-16 18:47:00,61.8,57.0,30.02,WSW,250,6.0,15.0,83,0.00,,,0.00,139,weatherlink.com 1.10,2013-07-17 01:47:00,
2013-07-16 19:02:00,61.5,56.0,30.02,WSW,250,0.0,8.0,83,0.00,,,0.00,167,weatherlink.com 1.10,2013-07-17 02:02:00,
2013-07-16 19:17:00,61.5,56.0,30.02,West,264,1.0,12.0,83,0.00,,,0.00,95,weatherlink.com 1.10,2013-07-17 02:17:00,
2013-07-16 19:32:00,60.7,56.0,30.02,West,280,6.0,14.0,84,0.00,,,0.00,49,weatherlink.com 1.10,2013-07-17 02:32:00,
2013-07-16 19:47:00,60.1,56.0,30.02,West,281,2.0,11.0,86,0.00,,,0.00,32,weatherlink.com 1.10,2013-07-17 02:47:00,
2013-07-16 20:02:00,59.6,56.0,30.03,West,262,4.0,12.0,87,0.00,,,0.00,21,weatherlink.com 1.10,2013-07-17 03:02:00,
2013-07-16 20:17:00,59.4,56.0,30.03,WNW,285,5.0,9.0,87,0.00,,,0.00,9,weatherlink.com 1.10,2013-07-17 03:17:00,
2013-07-16 20:32:00,59.3,56.0,30.04,WNW,283,4.0,12.0,88,0.00,,,0.00,0,weatherlink.com 1.10,2013-07-17 03:32:00,
2013-07-16 20:47:00,59.2,56.0,30.04,WNW,289,1.0,11.0,88,0.00,,,0.00,0,weatherlink.com 1.10,2013-07-17 03:47:00,
2013-07-16 21:02:00,59.2,56.0,30.04,WSW,256,1.0,9.0,88,0.00,,,0.00,0,weatherlink.com 1.10,2013-07-17 04:02:00,
2013-07-16 21:17:00,59.0,56.0,30.05,WNW,289,1.0,10.0,88,0.00,,,0.00,0,weatherlink.com 1.10,2013-07-17 04:17:00,
2013-07-16 21:32:00,59.0,56.0,30.05,West,274,3.0,7.0,88,0.00,,,0.00,0,weatherlink.com 1.10,2013-07-17 04:32:00,
2013-07-16 21:47:00,59.0,56.0,30.05,NW,311,4.0,6.0,88,0.00,,,0.00,0,weatherlink.com 1.10,2013-07-17 04:47:00,
2013-07-16 22:02:00,59.0,56.0,30.06,West,281,0.0,7.0,88,0.00,,,0.00,0,weatherlink.com 1.10,2013-07-17 05:02:00,
2013-07-16 22:17:00,58.9,56.0,30.07,West,272,5.0,6.0,89,0.00,,,0.00,0,weatherlink.com 1.10,2013-07-17 05:17:00,
2013-07-16 22:32:00,58.8,55.0,30.07,West,274,1.0,9.0,88,0.00,,,0.00,0,weatherlink.com 1.10,2013-07-17 05:32:00,
2013-07-16 22:47:00,58.9,55.0,30.07,SSW,207,0.0,4.0,88,0.00,,,0.00,0,weatherlink.com 1.10,2013-07-17 05:47:00,
2013-07-16 23:02:00,58.9,55.0,30.07,NW,314,1.0,7.0,88,0.00,,,0.00,0,weatherlink.com 1.10,2013-07-17 06:02:00,
2013-07-16 23:17:00,58.7,55.0,30.07,SSW,206,6.0,10.0,88,0.00,,,0.00,0,weatherlink.com 1.10,2013-07-17 06:17:00,
2013-07-16 23:32:00,58.7,55.0,30.07,WSW,241,3.0,7.0,88,0.00,,,0.00,0,weatherlink.com 1.10,2013-07-17 06:32:00,
2013-07-16 23:47:00,58.6,55.0,30.07,SSW,198,1.0,5.0,88,0.00,,,0.00,0,weatherlink.com 1.10,2013-07-17 06:47:00,